When you browse on this site, cookies collect data to enhance your experience and personalize the content and advertising you see.
Visit our Privacy Policy to learn more. By continuing to use the site, you agree to this use of cookies and data.
  • In Czech Republic
  • List of Countries
  • For 7 days
  • Water Temperature
  • Satellite Maps
  • Weather Map
  • Weather Widgets
  • user-avatar
    Login

    Hourly Weather Abovyan

    Today, 24 May, Friday

    Time Temperature Precipitation Wind Pressure Humidity
    00:00 +18°C° 0.4 mm 1 mps 672 mmHg 69%
    01:00 +16°C° 0.3 mm 1 mps 671 mmHg 70%
    02:00 +16°C° 0.3 mm 1 mps 671 mmHg 71%
    03:00 +15°C° 0 mm 1 mps 671 mmHg 72%
    04:00 +16°C° 0.2 mm 1 mps 671 mmHg 71%
    05:00 +16°C° 0.2 mm 2 mps 671 mmHg 70%
    06:00 +17°C° 0.2 mm 2 mps 671 mmHg 69%
    07:00 +19°C° 0.1 mm 2 mps 671 mmHg 64%
    08:00 +20°C° 0.1 mm 3 mps 671 mmHg 58%
    09:00 +22°C° 0.1 mm 3 mps 671 mmHg 53%
    10:00 +24°C° 0.2 mm 3 mps 671 mmHg 50%
    11:00 +25°C° 0.2 mm 3 mps 671 mmHg 48%
    12:00 +26°C° 0.2 mm 3 mps 671 mmHg 46%
    13:00 +26°C° 0.8 mm 3 mps 671 mmHg 45%
    14:00 +26°C° 0.8 mm 3 mps 671 mmHg 44%
    15:00 +27°C° 0.8 mm 3 mps 671 mmHg 43%
    16:00 +27°C° 0.7 mm 2 mps 671 mmHg 43%
    17:00 +27°C° 0.7 mm 2 mps 671 mmHg 43%
    18:00 +27°C° 0.7 mm 2 mps 672 mmHg 43%
    19:00 +25°C° 0.6 mm 2 mps 672 mmHg 48%
    20:00 +22°C° 0.6 mm 3 mps 672 mmHg 52%
    21:00 +20°C° 0.6 mm 3 mps 672 mmHg 57%
    22:00 +19°C° 0.3 mm 3 mps 672 mmHg 56%
    23:00 +19°C° 0.3 mm 3 mps 672 mmHg 56%

    Tomorrow, 25 May, Saturday

    Time Temperature Precipitation Wind Pressure Humidity
    00:00 +19°C° 0.3 mm 3 mps 672 mmHg 56%
    01:00 +18°C° 0.1 mm 3 mps 672 mmHg 55%
    02:00 +18°C° 0.1 mm 2 mps 672 mmHg 54%
    03:00 +18°C° 0.1 mm 2 mps 672 mmHg 52%
    04:00 +18°C° 0 mm 2 mps 672 mmHg 50%
    05:00 +18°C° 0 mm 2 mps 673 mmHg 48%
    06:00 +19°C° 0 mm 2 mps 673 mmHg 46%
    07:00 +21°C° 0 mm 2 mps 673 mmHg 41%
    08:00 +24°C° 0 mm 3 mps 673 mmHg 37%
    09:00 +26°C° 0 mm 3 mps 673 mmHg 32%
    10:00 +27°C° 0 mm 4 mps 673 mmHg 30%
    11:00 +29°C° 0 mm 4 mps 673 mmHg 29%
    12:00 +30°C° 0 mm 5 mps 673 mmHg 28%
    13:00 +30°C° 0.1 mm 5 mps 673 mmHg 28%
    14:00 +30°C° 0.1 mm 4 mps 672 mmHg 28%
    15:00 +30°C° 0.1 mm 4 mps 672 mmHg 28%
    16:00 +29°C° 0.5 mm 4 mps 672 mmHg 33%
    17:00 +27°C° 0.5 mm 4 mps 671 mmHg 37%
    18:00 +26°C° 0.5 mm 4 mps 671 mmHg 42%
    19:00 +24°C° 0.5 mm 3 mps 671 mmHg 44%
    20:00 +21°C° 0.5 mm 3 mps 671 mmHg 47%
    21:00 +20°C° 0.5 mm 2 mps 671 mmHg 50%
    22:00 +19°C° 0.2 mm 2 mps 671 mmHg 51%
    23:00 +19°C° 0.2 mm 2 mps 671 mmHg 52%

    Day after tomorrow, 26 May, Sunday

    Time Temperature Precipitation Wind Pressure Humidity
    00:00 +18°C° 0.2 mm 2 mps 671 mmHg 54%
    01:00 +18°C° 0 mm 2 mps 671 mmHg 54%
    02:00 +17°C° 0 mm 2 mps 671 mmHg 55%
    03:00 +17°C° 0 mm 2 mps 671 mmHg 56%
    04:00 +18°C° 0 mm 2 mps 671 mmHg 55%
    05:00 +18°C° 0 mm 2 mps 671 mmHg 55%
    06:00 +18°C° 0 mm 2 mps 671 mmHg 55%
    07:00 +20°C° 0 mm 2 mps 671 mmHg 49%
    08:00 +23°C° 0 mm 2 mps 671 mmHg 43%
    09:00 +25°C° 0 mm 2 mps 671 mmHg 37%
    10:00 +26°C° 0.1 mm 3 mps 671 mmHg 36%
    11:00 +27°C° 0.1 mm 3 mps 671 mmHg 35%
    12:00 +28°C° 0.1 mm 4 mps 671 mmHg 33%
    13:00 +29°C° 0 mm 4 mps 671 mmHg 31%
    14:00 +29°C° 0 mm 3 mps 671 mmHg 30%
    15:00 +29°C° 0 mm 3 mps 671 mmHg 28%
    16:00 +29°C° 0 mm 3 mps 671 mmHg 30%
    17:00 +28°C° 0 mm 2 mps 671 mmHg 32%
    18:00 +27°C° 0 mm 2 mps 671 mmHg 35%
    19:00 +25°C° 0 mm 2 mps 671 mmHg 39%
    20:00 +22°C° 0 mm 3 mps 671 mmHg 43%
    21:00 +19°C° 0 mm 4 mps 672 mmHg 48%
    22:00 +19°C° 0.2 mm 4 mps 672 mmHg 53%
    23:00 +18°C° 0.2 mm 3 mps 672 mmHg 59%

    27 May, Monday

    Time Temperature Precipitation Wind Pressure Humidity
    00:00 +17°C° 0.2 mm 3 mps 672 mmHg 65%
    01:00 +16°C° 0.2 mm 3 mps 672 mmHg 66%
    02:00 +16°C° 0.2 mm 3 mps 672 mmHg 66%
    03:00 +14°C° 0.2 mm 3 mps 672 mmHg 67%
    04:00 +16°C° 0 mm 2 mps 672 mmHg 66%
    05:00 +16°C° 0 mm 2 mps 673 mmHg 64%
    06:00 +17°C° 0 mm 2 mps 673 mmHg 63%
    07:00 +19°C° 0.1 mm 2 mps 673 mmHg 55%
    08:00 +20°C° 0.1 mm 2 mps 674 mmHg 47%
    09:00 +23°C° 0.1 mm 2 mps 674 mmHg 40%
    10:00 +24°C° 0.1 mm 2 mps 674 mmHg 36%
    11:00 +25°C° 0.1 mm 2 mps 674 mmHg 33%
    12:00 +26°C° 0.1 mm 3 mps 674 mmHg 30%
    13:00 +27°C° 0 mm 3 mps 674 mmHg 29%
    14:00 +27°C° 0 mm 3 mps 674 mmHg 28%
    15:00 +28°C° 0 mm 2 mps 674 mmHg 27%
    16:00 +27°C° 0.1 mm 2 mps 674 mmHg 30%
    17:00 +27°C° 0.1 mm 2 mps 674 mmHg 33%
    18:00 +26°C° 0.1 mm 1 mps 674 mmHg 36%
    19:00 +24°C° 0.2 mm 2 mps 674 mmHg 41%
    20:00 +21°C° 0.2 mm 3 mps 674 mmHg 46%
    21:00 +19°C° 0.2 mm 4 mps 675 mmHg 51%
    22:00 +18°C° 0.1 mm 3 mps 675 mmHg 54%
    23:00 +18°C° 0.1 mm 3 mps 675 mmHg 56%

    28 May, Tuesday

    Time Temperature Precipitation Wind Pressure Humidity
    00:00 +17°C° 0.1 mm 3 mps 675 mmHg 59%
    01:00 +17°C° 0 mm 3 mps 675 mmHg 61%
    02:00 +16°C° 0 mm 3 mps 675 mmHg 62%
    03:00 +14°C° 0 mm 3 mps 674 mmHg 64%
    04:00 +16°C° 0 mm 3 mps 675 mmHg 64%
    05:00 +17°C° 0 mm 2 mps 675 mmHg 64%
    06:00 +17°C° 0 mm 2 mps 675 mmHg 63%
    07:00 +19°C° 0 mm 2 mps 676 mmHg 57%
    08:00 +22°C° 0 mm 1 mps 676 mmHg 50%
    09:00 +24°C° 0 mm 1 mps 676 mmHg 44%
    10:00 +25°C° 0.1 mm 1 mps 676 mmHg 41%
    11:00 +26°C° 0.1 mm 1 mps 676 mmHg 37%
    12:00 +27°C° 0.1 mm 2 mps 676 mmHg 34%
    13:00 +27°C° 0.2 mm 1 mps 675 mmHg 33%
    14:00 +28°C° 0.2 mm 1 mps 675 mmHg 32%
    15:00 +28°C° 0.2 mm 1 mps 675 mmHg 31%
    16:00 +27°C° 0.4 mm 2 mps 675 mmHg 35%
    17:00 +27°C° 0.4 mm 2 mps 675 mmHg 39%
    18:00 +26°C° 0.4 mm 3 mps 675 mmHg 43%
    19:00 +24°C° 0.3 mm 3 mps 675 mmHg 50%
    20:00 +21°C° 0.3 mm 3 mps 675 mmHg 57%
    21:00 +19°C° 0.3 mm 4 mps 676 mmHg 64%
    22:00 +18°C° 0 mm 3 mps 676 mmHg 66%
    23:00 +18°C° 0 mm 3 mps 676 mmHg 67%

    29 May, Wednesday

    Time Temperature Precipitation Wind Pressure Humidity
    00:00 +17°C° 0 mm 3 mps 675 mmHg 69%
    01:00 +16°C° 0 mm 3 mps 675 mmHg 69%
    02:00 +16°C° 0 mm 3 mps 675 mmHg 69%
    03:00 +14°C° 0 mm 3 mps 675 mmHg 69%
    04:00 +16°C° 0 mm 2 mps 675 mmHg 67%
    05:00 +16°C° 0 mm 2 mps 675 mmHg 66%
    06:00 +17°C° 0 mm 2 mps 675 mmHg 64%
    07:00 +19°C° 0 mm 2 mps 676 mmHg 56%
    08:00 +22°C° 0 mm 1 mps 676 mmHg 48%
    09:00 +24°C° 0 mm 1 mps 676 mmHg 40%
    10:00 +25°C° 0 mm 1 mps 676 mmHg 37%
    11:00 +26°C° 0 mm 1 mps 675 mmHg 33%
    12:00 +28°C° 0 mm 2 mps 675 mmHg 30%
    13:00 +28°C° 0 mm 2 mps 675 mmHg 29%
    14:00 +29°C° 0 mm 2 mps 675 mmHg 28%
    15:00 +29°C° 0 mm 2 mps 674 mmHg 28%
    16:00 +28°C° 0 mm 1 mps 674 mmHg 31%
    17:00 +28°C° 0 mm 1 mps 674 mmHg 34%
    18:00 +27°C° 0 mm 1 mps 674 mmHg 37%
    19:00 +25°C° 0.3 mm 2 mps 674 mmHg 45%
    20:00 +23°C° 0.3 mm 2 mps 674 mmHg 52%
    21:00 +19°C° 0.3 mm 3 mps 674 mmHg 60%
    22:00 +19°C° 0.1 mm 3 mps 674 mmHg 63%
    23:00 +18°C° 0.1 mm 3 mps 674 mmHg 67%
    Show more